When you browse on this site, cookies collect data to enhance your experience and personalize the content and advertising you see.
Visit our Privacy Policy to learn more. By continuing to use the site, you agree to this use of cookies and data.
  • en Suisse
  • Liste des pays
  • À 7 jours
  • Température de l'eau
  • Carte satellitaire
  • Carte météo
  • Widgets météo
  • user-avatar
    Se connecter

    Météo par heure à Canillo

    Ce jour, 23 Mars, Samedi

    Heure Température Précipitation Vent Pression Humidité
    00:00 +2°C° 0 mm 1 m/s 621 mmHg 76%
    01:00 +2°C° 0 mm 1 m/s 621 mmHg 75%
    02:00 +2°C° 0 mm 1 m/s 621 mmHg 74%
    03:00 +2°C° 0 mm 1 m/s 621 mmHg 73%
    04:00 +2°C° 0 mm 1 m/s 621 mmHg 71%
    05:00 +2°C° 0 mm 1 m/s 621 mmHg 70%
    06:00 +1°C° 0 mm 1 m/s 621 mmHg 69%
    07:00 +4°C° 0 mm 1 m/s 622 mmHg 60%
    08:00 +7°C° 0 mm 1 m/s 623 mmHg 51%
    09:00 +9°C° 0 mm 0 m/s 625 mmHg 43%
    10:00 +10°C° 0 mm 0 m/s 625 mmHg 40%
    11:00 +12°C° 0 mm 1 m/s 625 mmHg 38%
    12:00 +13°C° 0 mm 1 m/s 625 mmHg 36%
    13:00 +13°C° 0 mm 1 m/s 625 mmHg 37%
    14:00 +13°C° 0 mm 1 m/s 624 mmHg 39%
    15:00 +12°C° 0 mm 1 m/s 624 mmHg 40%
    16:00 +11°C° 0 mm 1 m/s 623 mmHg 48%
    17:00 +9°C° 0 mm 1 m/s 622 mmHg 56%
    18:00 +7°C° 0 mm 1 m/s 621 mmHg 64%
    19:00 +6°C° 0 mm 1 m/s 621 mmHg 68%
    20:00 +5°C° 0 mm 1 m/s 621 mmHg 71%
    21:00 +4°C° 0 mm 1 m/s 621 mmHg 75%
    22:00 +3°C° 0 mm 1 m/s 621 mmHg 74%
    23:00 +3°C° 0 mm 1 m/s 621 mmHg 74%

    Demain, 24 Mars, Dimanche

    Heure Température Précipitation Vent Pression Humidité
    00:00 +3°C° 0 mm 1 m/s 620 mmHg 74%
    01:00 +3°C° 0 mm 1 m/s 620 mmHg 72%
    02:00 +3°C° 0 mm 1 m/s 620 mmHg 70%
    03:00 +3°C° 0 mm 1 m/s 620 mmHg 69%
    04:00 +3°C° 0 mm 1 m/s 620 mmHg 68%
    05:00 +3°C° 0 mm 1 m/s 620 mmHg 67%
    06:00 +3°C° 0 mm 1 m/s 620 mmHg 66%
    07:00 +5°C° 0 mm 1 m/s 621 mmHg 58%
    08:00 +8°C° 0 mm 1 m/s 622 mmHg 51%
    09:00 +10°C° 0 mm 1 m/s 624 mmHg 43%
    10:00 +11°C° 0 mm 1 m/s 624 mmHg 42%
    11:00 +12°C° 0 mm 1 m/s 624 mmHg 41%
    12:00 +13°C° 0 mm 1 m/s 624 mmHg 39%
    13:00 +13°C° 0.2 mm 1 m/s 624 mmHg 43%
    14:00 +12°C° 0.2 mm 1 m/s 623 mmHg 47%
    15:00 +11°C° 0.2 mm 1 m/s 622 mmHg 51%
    16:00 +10°C° 0.5 mm 1 m/s 622 mmHg 60%
    17:00 +8°C° 0.5 mm 1 m/s 621 mmHg 69%
    18:00 +7°C° 0.5 mm 1 m/s 621 mmHg 77%
    19:00 +6°C° 0.1 mm 1 m/s 621 mmHg 82%
    20:00 +5°C° 0.1 mm 1 m/s 621 mmHg 86%
    21:00 +5°C° 0.1 mm 1 m/s 621 mmHg 90%
    22:00 +4°C° 0 mm 1 m/s 620 mmHg 91%
    23:00 +4°C° 0 mm 1 m/s 620 mmHg 92%

    Après-demain, 25 Mars, Lundi

    Heure Température Précipitation Vent Pression Humidité
    00:00 +4°C° 0 mm 1 m/s 620 mmHg 93%
    01:00 +3°C° 0 mm 1 m/s 620 mmHg 93%
    02:00 +3°C° 0 mm 1 m/s 619 mmHg 94%
    03:00 +3°C° 0 mm 1 m/s 619 mmHg 94%
    04:00 +3°C° 0 mm 1 m/s 619 mmHg 93%
    05:00 +2°C° 0 mm 1 m/s 619 mmHg 91%
    06:00 +2°C° 0 mm 1 m/s 618 mmHg 90%
    07:00 +4°C° 0 mm 1 m/s 619 mmHg 79%
    08:00 +6°C° 0 mm 1 m/s 620 mmHg 69%
    09:00 +8°C° 0 mm 1 m/s 621 mmHg 58%
    10:00 +8°C° 0 mm 2 m/s 622 mmHg 55%
    11:00 +9°C° 0 mm 2 m/s 622 mmHg 51%
    12:00 +10°C° 0 mm 2 m/s 622 mmHg 48%
    13:00 +9°C° 0.1 mm 2 m/s 621 mmHg 54%
    14:00 +8°C° 0.1 mm 2 m/s 621 mmHg 59%
    15:00 +8°C° 0.1 mm 2 m/s 620 mmHg 65%
    16:00 +6°C° 0.1 mm 2 m/s 619 mmHg 71%
    17:00 +5°C° 0.1 mm 2 m/s 619 mmHg 78%
    18:00 +4°C° 0.1 mm 2 m/s 618 mmHg 84%
    19:00 +4°C° 0 mm 2 m/s 619 mmHg 86%
    20:00 +3°C° 0 mm 2 m/s 619 mmHg 89%
    21:00 +2°C° 0 mm 2 m/s 619 mmHg 91%
    22:00 +1°C° 0 mm 2 m/s 619 mmHg 91%
    23:00 -1°C° 0 mm 2 m/s 618 mmHg 91%

    26 Mars, Mardi

    Heure Température Précipitation Vent Pression Humidité
    00:00 -2°C° 0 mm 2 m/s 618 mmHg 91%
    01:00 -2°C° 0 mm 2 m/s 618 mmHg 90%
    02:00 -2°C° 0 mm 2 m/s 618 mmHg 88%
    03:00 -2°C° 0 mm 2 m/s 618 mmHg 87%
    04:00 -2°C° 0 mm 2 m/s 618 mmHg 86%
    05:00 -2°C° 0 mm 2 m/s 618 mmHg 85%
    06:00 -3°C° 0 mm 2 m/s 618 mmHg 84%
    07:00 +1°C° 0 mm 2 m/s 619 mmHg 68%
    08:00 +4°C° 0 mm 2 m/s 621 mmHg 51%
    09:00 +6°C° 0 mm 2 m/s 622 mmHg 34%
    10:00 +7°C° 0 mm 2 m/s 623 mmHg 32%
    11:00 +10°C° 0 mm 1 m/s 623 mmHg 29%
    12:00 +11°C° 0 mm 1 m/s 624 mmHg 27%
    13:00 +11°C° 0 mm 1 m/s 624 mmHg 30%
    14:00 +11°C° 0 mm 1 m/s 624 mmHg 33%
    15:00 +10°C° 0 mm 1 m/s 623 mmHg 36%
    16:00 +8°C° 0 mm 1 m/s 623 mmHg 46%
    17:00 +6°C° 0 mm 1 m/s 622 mmHg 56%
    18:00 +4°C° 0 mm 1 m/s 622 mmHg 65%
    19:00 +3°C° 0 mm 1 m/s 622 mmHg 70%
    20:00 +3°C° 0 mm 1 m/s 622 mmHg 74%
    21:00 +2°C° 0 mm 1 m/s 622 mmHg 78%
    22:00 +2°C° 0 mm 1 m/s 622 mmHg 77%
    23:00 +1°C° 0 mm 1 m/s 622 mmHg 77%

    27 Mars, Mercredi

    Heure Température Précipitation Vent Pression Humidité
    00:00 +1°C° 0 mm 1 m/s 622 mmHg 77%
    01:00 +1°C° 0 mm 1 m/s 622 mmHg 76%
    02:00 +1°C° 0 mm 1 m/s 622 mmHg 75%
    03:00 +1°C° 0 mm 1 m/s 622 mmHg 74%
    04:00 +1°C° 0 mm 1 m/s 622 mmHg 74%
    05:00 +1°C° 0 mm 1 m/s 622 mmHg 74%
    06:00 +1°C° 0 mm 1 m/s 622 mmHg 74%
    07:00 +4°C° 0 mm 1 m/s 623 mmHg 64%
    08:00 +6°C° 0 mm 1 m/s 624 mmHg 53%
    09:00 +9°C° 0 mm 1 m/s 626 mmHg 43%
    10:00 +10°C° 0 mm 1 m/s 626 mmHg 40%
    11:00 +12°C° 0 mm 1 m/s 626 mmHg 37%
    12:00 +13°C° 0 mm 1 m/s 627 mmHg 34%
    13:00 +13°C° 0 mm 1 m/s 626 mmHg 36%
    14:00 +12°C° 0 mm 1 m/s 625 mmHg 38%
    15:00 +12°C° 0 mm 1 m/s 625 mmHg 40%
    16:00 +10°C° 0 mm 1 m/s 624 mmHg 50%
    17:00 +8°C° 0 mm 1 m/s 623 mmHg 59%
    18:00 +6°C° 0 mm 1 m/s 622 mmHg 69%
    19:00 +5°C° 0 mm 1 m/s 622 mmHg 73%
    20:00 +3°C° 0 mm 1 m/s 622 mmHg 78%
    21:00 +2°C° 0 mm 1 m/s 621 mmHg 82%
    22:00 +2°C° 0 mm 1 m/s 621 mmHg 78%
    23:00 +2°C° 0 mm 1 m/s 621 mmHg 74%

    28 Mars, Jeudi

    Heure Température Précipitation Vent Pression Humidité
    00:00 +2°C° 0 mm 1 m/s 621 mmHg 69%
    01:00 +2°C° 0 mm 1 m/s 620 mmHg 66%
    02:00 +2°C° 0 mm 1 m/s 620 mmHg 63%
    03:00 +2°C° 0 mm 1 m/s 620 mmHg 59%
    04:00 +1°C° 0 mm 1 m/s 620 mmHg 57%
    05:00 +1°C° 0 mm 1 m/s 620 mmHg 55%
    06:00 +1°C° 0 mm 1 m/s 620 mmHg 53%
    07:00 +4°C° 0 mm 1 m/s 621 mmHg 46%
    08:00 +6°C° 0 mm 1 m/s 622 mmHg 39%
    09:00 +9°C° 0 mm 1 m/s 624 mmHg 31%
    10:00 +10°C° 0 mm 1 m/s 624 mmHg 31%
    11:00 +11°C° 0 mm 1 m/s 624 mmHg 30%
    12:00 +12°C° 0 mm 1 m/s 624 mmHg 29%
    13:00 +12°C° 0 mm 1 m/s 624 mmHg 32%
    14:00 +11°C° 0 mm 1 m/s 623 mmHg 34%
    15:00 +11°C° 0 mm 1 m/s 623 mmHg 37%
    16:00 +9°C° 0 mm 1 m/s 622 mmHg 45%
    17:00 +7°C° 0 mm 1 m/s 622 mmHg 52%
    18:00 +6°C° 0 mm 1 m/s 621 mmHg 60%
    19:00 +4°C° 0 mm 1 m/s 621 mmHg 65%
    20:00 +3°C° 0 mm 1 m/s 621 mmHg 69%
    21:00 +2°C° 0 mm 1 m/s 621 mmHg 74%
    22:00 +2°C° 0 mm 1 m/s 621 mmHg 74%
    23:00 +1°C° 0 mm 1 m/s 621 mmHg 73%
    Voir plus